Location: Newark
(46.7000°N, 60.6000°W)
Time: 06:09:38
(UTC+00:00)

Transit 2A Rocket - Pass Details

Date: 31 October 2020
Orbit: 588 x 914 km, 66.7° (Epoch: 27 November)

Event Time Altitude Azimuth Distance (km) Brightness Sun altitude
Rises 18:55:16 0° 327° (NNW) 3,390 8.2 15.6°
Reaches altitude 10° 18:59:14 10° 354° (N) 2,378 7.3 15.1°
Maximum altitude 19:01:50 13° 22° (NNE) 2,093 6.8 14.7°
Drops below altitude 10° 19:04:21 10° 52° (NE) 2,267 6.9 14.4°
Sets 19:07:56 0° 79° (E) 3,106 7.6 13.9°
